STARLINK-1511 (45767 NORAD) Tracking and Keplerian Element Data

This shows tracking and keplerian element data for the satellite.

Feedback or suggestion? Click here.




ElementValue
Catalog45767
NameSTARLINK-1511
Epoch Orbit428
Epoch Day185.50001157
Epoch Year2020
RAAN197.5422
Inclination52.9963
Eccentricity0.0001096
Argument of Perigee112.7287
Mean Anonmoly265.7431
Mean Motion15.6395111
Decay Rate-0.01104737
L11 45767U 20038AP 20185.50001157 -.01104737 00000-0 -12678-1 0 9997
L22 45767 52.9963 197.5422 0001096 112.7287 265.7431 15.63951110 4283

Live tracking and technical data element details for STARLINK-1511 (NORAD 45767). STARLINK-1511 can be tracked NOW for your location showing map with azimuth and elevation plus other details from your city location.

Track the satellite on the map from your city or location and see movement details for azimuth, elevation, latitude, longitude, range, height, and movement on the map or in text.







IsCatalogInMostPopularTable: catalog: 45767, numindb: 7
Update: records affected: 1



GetName: 45767 STARLINK-1511

Hit Count: updated at: Sat, 04 Jul 2020 03:08:56 GMT